Вернуться в каталог

IRIDIUM 181

АктивенСвязьPO
NORAD 56726·PAYLOAD·🇺🇸 United States

Запущен May 20, 2023 с Vandenberg Space Force Base

Loading…

Ближайшие Пролёты (ближайшие 24 часа)

TLE

СвежийSource: CelesTrak SupGP

Эпоха: Sep 14, 2026, 21:55 UTC

1 56726C 23068S   26257.91354167 -.00001920  00000+0 -57133-3 0  2575
2 56726  86.4548  19.2736 0002202  99.9849  32.6996 14.43314278    18

Отслеживайте IRIDIUM 181 в реальном времени с AllMySat

Download on the App Store